TITAN 3C TRANSTAGE DEB

基本信息
目录编号:
43512
目录名称:
TITAN 3C TRANSTAGE DEB
国际标识:
1969-013Q
轨道中心:
EARTH
物体状态:
在轨
发射日期:
1969-02-09 UTC
轨道信息
数据来源: 国际轨道数据
星历时间: 2026-01-10T10:08:13+0800
半长轴: 43706.792km
偏心率: 0.1083873
轨道倾角: 0.793°
近地点辐角: 16.316°
升交点赤经: 139.303°
平近点角: 209.941°
近地点: 32591.393km
远地点: 42065.917km
周期: 1515.595分钟
每日圈数: 0.950122
详细信息
发射场:
AFETR
轨道高度:
MEO
数据来源:
AOE Integration Group
参考系:
TEME
时间系统:
UTC
历元类型:
SGP4
2D轨道图
3D轨道图
轨道高度分析图
轨道倾角分析图
轨道综合分析图
查看轨道综合分析图